Location: Unspecified
(46.9000°N, 7.4000°E)
Time: 02:36:09
(UTC+00:00)

Daily predictions for brighter satellites

Satellite Brightness Start Highest point End
(mag) Time Altitude Azimuth Time Altitude Azimuth Time Altitude Azimuth
Cosmos 1934 Rocket 4.1 00:00:46 10° N 00:07:08 73° E 00:10:47 27° SSE
Lacrosse 5 rocket 0.9 00:05:52 10° NW 00:09:22 75° NE 00:10:26 41° ESE
Cosmos 2263 Rocket 4.4 00:05:24 10° N 00:09:47 23° NE 00:14:09 10° E
Cosmos 1980 Rocket 4.4 00:07:24 10° SE 00:10:01 13° E 00:12:38 10° ENE
IDEFIX/ARIANE 42P 4.4 00:07:03 10° NE 00:10:53 20° E 00:13:49 13° SE
Cosmos 407 Rocket 3.4 00:10:24 37° SSW 00:12:28 83° WNW 00:17:39 10° NNE
Cosmos 405 Rocket 2.9 00:15:22 38° E 00:15:22 38° E 00:18:09 10° NNE
Cosmos 371 Rocket 3.5 00:15:57 33° SW 00:17:58 62° WNW 00:22:45 10° NNE
Cosmos 374 Rocket 4.4 00:18:42 48° SSE 00:19:18 54° SE 00:22:59 10° NE
SL-4 R/B 2.5 00:20:48 10° WNW 00:23:54 44° NNE 00:26:55 10° E
CZ-2C R/B 4.3 00:21:56 10° N 00:26:29 31° WNW 00:29:19 18° WSW
Cosmos 1339 Rocket 4.5 00:23:55 31° SSW 00:26:56 73° W 00:33:04 10° N
Cosmos 1656 3.7 00:26:06 30° SW 00:28:53 71° WNW 00:34:28 10° NNE
Cosmos 1763 Rocket 3.9 00:24:26 10° NW 00:29:12 43° WSW 00:30:41 34° SW
Cosmos 1378 Rocket 3.5 00:29:06 41° S 00:30:30 78° E 00:34:47 10° NNE
USA 308 3.4 00:27:22 10° NW 00:31:00 54° NNE 00:35:09 10° ESE
ATLAS 3B R/B 3.5 00:27:14 26° S 00:31:15 47° ESE 00:38:42 10° NE
USA 32 4.1 00:27:08 10° N 00:32:19 67° W 00:34:32 34° SSW
BREEZE-M DEB (TANK) 3.9 00:12:33 10° WNW 00:32:23 78° SSW 00:36:36 10° ESE
Nadezhda 3 Rocket 4.5 00:32:21 26° SW 00:35:40 51° WNW 00:41:49 10° N
Cosmos 1954 Rocket 4.2 00:33:32 32° S 00:35:44 59° ESE 00:40:48 10° NNE
CENTAUR R/B 3.3 00:27:51 10° NW 00:36:12 87° SW 00:45:44 10° SE
Meteor 1-11 4.2 00:35:12 32° SSW 00:37:59 84° W 00:43:47 10° N
Cosmos 1190 Rocket 4.0 00:36:41 34° S 00:39:00 75° ESE 00:44:13 10° NNE
BREEZE-M DEB (TANK) 4.4 00:16:27 10° WSW 00:39:19 82° NNW 00:44:11 10° ENE
CZ-4C R/B 3.1 00:38:51 10° N 00:42:25 68° WNW 00:43:14 48° SW
NOSS 2-2 (E) 3.4 00:41:13 10° NW 00:44:57 69° SW 00:47:58 22° SSE
Landsat 5 4.3 00:46:10 10° N 00:49:35 35° WNW 00:50:51 27° WSW
ISS -1.1 00:52:07 10° ESE 00:52:07 10° ESE 00:52:15 10° ESE
Meteor 2-1 Rocket 4.3 00:46:30 10° N 00:52:24 89° ENE 00:56:17 23° S
DELTA 2 DEB (DPAF) 3.5 00:50:03 10° N 00:53:35 74° WNW 00:54:33 44° SSW
NOSS 2-2 (D) 4.1 00:52:48 10° NW 00:56:27 38° SW 00:57:34 33° SSW
Cosmos 1346 Rocket 4.2 00:55:30 20° W 00:56:37 24° WNW 00:59:38 10° NNW
Cosmos 2084 Rocket 4.2 00:57:13 22° WSW 00:59:29 44° NW 01:03:25 10° NNE
CZ-2C R/B 4.3 01:00:30 16° WSW 01:02:09 18° W 01:05:45 10° NW
Cosmos 1674 Rocket 3.6 01:01:31 33° SSW 01:03:25 72° W 01:07:50 10° N
Cosmos 1697 Rocket 2.7 01:00:28 28° SSW 01:03:32 77° ESE 01:09:09 10° NNE
ACS3 Solar Sail 2.9 01:04:26 10° N 01:09:12 29° WNW 01:12:56 15° WSW
Cosmos 1025 Rocket 3.1 01:08:07 32° SSW 01:10:03 67° W 01:14:24 10° N
FENGYUN 3A 4.1 01:08:36 10° NNE 01:13:51 53° E 01:17:34 19° S
Geosat 4.0 01:09:15 10° NNE 01:14:16 78° WNW 01:17:12 25° SW
Cosmos 1605 Rocket 4.1 01:08:12 10° NNW 01:14:22 64° W 01:18:17 23° SSW
Cosmos 2227 Rocket 2.2 01:09:18 10° NNW 01:14:59 84° ENE 01:20:37 10° SSE
SJ 16-02 3.0 01:13:51 14° WSW 01:16:19 23° WNW 01:19:44 10° N
Resurs 1-4 Rocket 4.1 01:14:35 10° NE 01:18:28 20° E 01:22:20 10° SE
Gbstr 26 Del rocket 4.3 01:13:20 11° WSW 01:19:45 78° NNW 01:27:23 10° ENE
Okean 2 Rocket 3.2 01:17:56 10° NNW 01:22:14 59° W 01:24:28 26° SSW
PSLV R/B 4.2 01:20:31 10° N 01:24:12 47° WNW 01:25:56 27° SW
USA 229 DEB 3.6 01:20:14 20° SW 01:24:32 73° NW 01:31:21 10° NE
USA 229 3.6 01:20:17 20° SW 01:24:34 74° NW 01:31:23 10° NE
SL-24 R/B - RUBIN 2 3.7 01:20:09 10° NW 01:24:45 87° SW 01:29:48 10° SE
Cosmos 676 Rocket 4.0 01:22:27 25° SSW 01:25:32 74° WNW 01:30:44 10° NNE
USA 215 4.1 01:23:49 21° SSW 01:26:19 27° SW 01:31:43 10° WNW
MSX 3.8 01:21:14 10° NNE 01:27:02 88° ESE 01:31:02 21° SSW
Cosmos 2228 3.7 01:23:39 10° N 01:27:48 51° ENE 01:31:54 10° SSE
Cosmos 2251 Rocket 4.3 01:26:40 19° SW 01:30:08 43° WNW 01:35:15 10° N
NPP 3.8 01:24:55 10° NNE 01:30:20 72° ESE 01:34:16 19° S
Okean 1 Rocket 3.3 01:26:29 10° NNW 01:30:41 51° W 01:32:55 25° SSW
Cosmos 968 Rocket 3.5 01:27:26 23° SSW 01:30:45 82° ESE 01:36:02 10° NNE
ADEOS Rocket 2.8 01:29:42 10° NNE 01:35:38 80° WNW 01:39:34 20° SSW
Cosmos 1437 Rocket 2.4 01:32:45 10° N 01:36:09 76° ENE 01:38:33 18° SSE
Cosmos 2292 Rocket 3.2 01:34:59 27° SSW 01:36:53 78° W 01:41:19 10° N
Cosmos 1782 2.4 01:35:35 10° NNW 01:39:05 73° W 01:41:08 23° S
Cosmos 2297 Rocket 3.3 01:39:07 10° NW 01:43:41 26° WSW 01:46:09 19° SW
Cosmos 1975 Rocket 3.5 01:40:37 16° S 01:43:58 58° E 01:48:11 10° NNE
USA 59 Rocket 3.5 01:44:26 10° NNE 01:44:55 10° NNE 01:45:27 10° NE
Cosmos 841 Rocket 4.0 01:41:49 10° NW 01:46:37 39° WSW 01:49:51 18° SSW
H-2A R/B 3.6 01:42:29 10° NNE 01:46:57 29° E 01:51:18 10° SSE
NOSS 3-2 (A) 4.1 01:40:47 10° NW 01:48:08 79° SW 01:56:59 10° SSE
Cosmos 1862 3.0 01:46:02 21° S 01:48:17 80° E 01:51:51 10° N
IDEFIX/ARIANE 42P 2.8 01:45:35 10° N 01:50:43 59° WNW 01:54:30 18° SW
Envisat 3.7 01:46:04 10° NNE 01:50:59 48° E 01:55:52 10° S
Cosmos 2219 3.9 01:45:24 10° NNW 01:51:01 59° ENE 01:56:37 10° SE
USA 308 3.0 01:49:05 10° WNW 01:52:58 43° SW 01:56:50 10° SSE
Cosmos 1980 Rocket 2.2 01:48:47 18° SSW 01:53:05 84° ESE 01:58:48 10° NNE
Cosmos 2263 Rocket 2.1 01:48:41 10° NNW 01:54:17 75° WSW 01:59:53 10° SSE
Cosmos 1741 Rocket 4.1 01:51:45 17° SSW 01:55:53 77° ESE 02:01:11 10° NNE
COSMOS 2441 4.5 01:52:38 10° NNE 01:57:34 79° ESE 02:01:46 14° S
Cosmos 1850 Rocket 4.0 01:55:07 17° SSW 01:59:06 86° ESE 02:04:20 10° NNE
SL-4 R/B 1.5 01:58:07 10° WNW 02:01:08 43° SW 02:04:05 10° SE
Cosmos 1459 Rocket 4.0 01:58:30 10° N 02:04:46 79° W 02:11:04 10° S
MOZ.5/SAFIR/RUBIN 5/SL-8 3.7 02:01:54 10° SSE 02:06:31 86° WSW 02:11:12 10° NNW
Cosmos 1844 Rocket 4.5 02:02:55 10° NNW 02:08:01 35° NE 02:13:08 10° ESE
Cosmos 2123 Rocket 4.1 02:03:46 11° S 02:09:59 87° E 02:16:19 10° N
Cosmos 1455 Rocket 3.8 02:09:17 10° NNW 02:13:16 36° W 02:16:31 14° SSW
Cosmos 2058 2.8 02:10:35 15° SSW 02:13:42 69° W 02:17:39 10° N
ADEOS II 3.2 02:10:44 10° NNE 02:15:40 41° E 02:20:34 10° SSE
Cosmos 2173 Rocket 4.1 02:12:50 10° NNW 02:18:57 58° W 02:24:58 10° S
SeaSat 1 4.3 02:16:28 10° ESE 02:20:52 35° NE 02:25:17 10° NNW
CZ-2D R/B 2.6 02:16:31 10° NNE 02:21:53 62° ESE 02:27:09 10° S
ATLAS 3B R/B 3.5 02:14:29 10° WSW 02:22:02 54° NW 02:29:46 10° NE
MOS 1-B Rocket 4.5 02:16:58 10° N 02:22:24 43° WNW 02:27:19 12° SW
NOAA 11 4.4 02:17:50 10° N 02:23:15 61° WNW 02:28:23 11° SSW
Cosmos 2082 3.8 02:17:42 10° NNW 02:23:23 86° ENE 02:29:04 10° SSE
Cosmos 158 Rocket 3.8 02:19:28 10° NNW 02:24:18 65° WSW 02:29:05 10° S
CENTAUR R/B 4.2 02:19:25 10° WNW 02:26:18 27° WSW 02:33:41 10° SSW
ISS -3.6 02:25:02 14° SW 02:27:47 60° SSE 02:31:08 10° ENE
SL-16 R/B 3.3 02:27:28 10° S 02:32:40 39° ESE 02:37:53 10° NE
SL-08 R/B 4.5 02:27:41 10° N 02:33:52 86° W 02:39:57 10° S
Cosmos 2016 Rocket 4.0 02:28:12 10° NNW 02:34:27 75° W 02:40:45 10° S
Cosmos 1544 Rocket 3.5 02:30:45 10° N 02:35:11 81° W 02:39:36 10° S
NOSS 2-3 (D) 4.2 02:30:29 10° NW 02:35:33 81° SW 02:42:23 10° SSE
NOSS 3-2 (C) 4.1 02:32:56 10° NW 02:40:17 82° SW 02:49:10 10° SSE
Cosmos 1933 3.1 02:37:00 10° NNW 02:40:47 70° W 02:44:32 10° S
Aureole 2 4.4 02:38:34 10° NNW 02:41:04 56° ENE 02:43:38 10° SSE
Cosmos 2061 Rocket 4.2 02:37:07 10° N 02:43:32 83° E 02:49:49 10° S
Cosmos 1743 4.1 02:42:32 10° SSE 02:45:06 27° E 02:47:42 10° NNE
H-2A R/B 2.5 02:43:10 10° SSE 02:47:04 80° ENE 02:51:02 10° NNW
Cosmos 1697 Rocket 4.4 02:43:46 10° W 02:48:06 22° NW 02:52:28 10° N
Cosmos 2369 3.8 02:43:33 10° SSW 02:49:14 72° WNW 02:54:59 10° NNE
Cosmos 1725 Rocket 4.3 02:43:58 10° NNW 02:50:01 53° W 02:56:04 10° SSW
JB-3 4.2 02:47:09 10° S 02:50:58 75° WSW 02:54:49 10° NNW
Cosmos 2333 Rocket 2.9 02:51:20 10° S 02:56:50 54° ESE 03:02:23 10° NE
Cosmos 2227 Rocket 3.8 02:54:57 10° WNW 02:58:13 16° W 03:01:29 10° SW
Resurs 1-4 Rocket 2.3 02:53:26 10° N 02:58:37 60° WNW 03:03:47 10° SSW
Cosmos 2098 Rocket 3.7 02:54:23 10° N 02:58:54 68° E 03:04:02 10° SSE
Cosmos 1536 Rocket 3.6 02:54:53 10° S 02:59:19 88° WNW 03:03:46 10° N
Cosmos 1814 Rocket 4.5 02:55:41 10° NW 03:00:36 40° WSW 03:05:28 10° S
ALOS 2.5 02:57:06 10° N 03:01:34 55° WNW 03:06:00 10° SSW
